Location: Unspecified
(0.0000°N, 0.0000°E)
Time: 03:54:06
(UTC+00:00)

ISS - Pass Details

Date: 19 September 2017
Orbit: 401 x 407 km, 51.6° (Epoch: 23 September)

Event Time Altitude Azimuth Distance (km) Brightness Sun altitude
Rises 19:30:27 0° 229° (SW) 2,308 0.7 -24.2°
Reaches altitude 10° 19:32:38 10° 239° (WSW) 1,448 -0.3 -24.8°
Enters shadow 19:34:56 30° 278° (W) 748 -1.9 -25.3°
